Weather History for KO54 - May, 2012

Change the Weather History Date:

Tuesday, May 1, 2012

  Actual Average (KRDD) Record (KRDD)
Temperature  
Mean Temperature 50 °F -  
Max Temperature 64 °F 76 °F 95 °F (2015)
Min Temperature 35 °F 50 °F 36 °F (1988)
Degree Days  
Heating Degree Days 16    
Cooling Degree Days 0    
Moisture  
Dew Point 32 °F    
Average Humidity 56    
Maximum Humidity 93    
Minimum Humidity 22    
Precipitation  
Precipitation 0.00 in 0.06 in 1.00 in (2009)
Month to date precipitation 0.06  
Year to date precipitation 18.38  
Sea Level Pressure  
Sea Level Pressure 29.93 in    
Wind  
Wind Speed 4 mph (WSW)    
Max Wind Speed 17 mph    
Max Gust Speed 26 mph    
Visibility 10 miles    
Events      
T = Trace of Precipitation, MM = Missing Value Source: NWS Daily Summary

Daily Weather History Graph

Daily Weather History Graph

Search for Another Location

Airport or City:

Trip Planner

Search our weather history database for the weather conditions in past years. The results will help you decide how hot, cold, wet, or windy it might be!

Date:

Astronomy

May. 01, 2012 Rise Set
Actual Time 6:09 AM PDT 8:08 PM PDT
Civil Twilight 5:39 AM PDT 8:38 PM PDT
Nautical Twilight 5:03 AM PDT 9:14 PM PDT
Astronomical Twilight 4:24 AM PDT 9:54 PM PDT
Moon 3:16 PM PDT (5/1) 3:11 AM PDT (5/1)
Length of Visible Light 14h 58m
Length of Day
13h 59m
Waxing Gibbous, 75% of the Moon is Illuminated
May 1
Waxing Gibbous
May 5
Full
May 12
Last Quarter
May 20
New
May 28
First Quarter

Hourly Weather History & Observations

Time (PDT) Temp. Windchill Dew Point Humidity Pressure Visibility Wind Dir Wind Speed Gust Speed Precip Events Conditions
12:15 AM 42.8 °F 41.1 °F 37.4 °F 81% 29.98 in 10.0 mi ENE 3.5 mph - N/A   Clear
12:35 AM 42.8 °F - 35.6 °F 76% 29.98 in 10.0 mi Calm Calm - N/A   Clear
12:55 AM 41.0 °F - 35.6 °F 81% 29.98 in 10.0 mi Calm Calm - N/A   Clear
1:15 AM 41.0 °F 38.0 °F 35.6 °F 81% 29.98 in 10.0 mi NNE 4.6 mph - N/A   Clear
1:35 AM 41.0 °F 38.0 °F 35.6 °F 81% 29.97 in 10.0 mi NNE 4.6 mph - N/A   Clear
1:55 AM 39.2 °F 35.9 °F 35.6 °F 87% 29.97 in 10.0 mi NNE 4.6 mph - N/A   Clear
2:15 AM 39.2 °F - 35.6 °F 87% 29.97 in 10.0 mi Calm Calm - N/A   Clear
2:35 AM 39.2 °F 35.9 °F 35.6 °F 87% 29.97 in 10.0 mi NNE 4.6 mph - N/A   Clear
2:55 AM 39.2 °F 37.0 °F 35.6 °F 87% 29.97 in 10.0 mi NE 3.5 mph - N/A   Clear
3:15 AM 39.2 °F - 35.6 °F 87% 29.97 in 10.0 mi Calm Calm - N/A   Clear
3:35 AM 37.4 °F - 35.6 °F 93% 29.97 in 10.0 mi Calm Calm - N/A   Clear
3:55 AM 37.4 °F 34.9 °F 33.8 °F 87% 29.97 in 10.0 mi NE 3.5 mph - N/A   Clear
4:15 AM 37.4 °F - 33.8 °F 87% 29.97 in 10.0 mi Calm Calm - N/A   Clear
4:35 AM 35.6 °F - 33.8 °F 93% 29.97 in 10.0 mi Calm Calm - N/A   Clear
4:55 AM 35.6 °F 32.8 °F 33.8 °F 93% 29.97 in 10.0 mi NNE 3.5 mph - N/A   Clear
5:15 AM 35.6 °F 32.8 °F 32.0 °F 87% 29.97 in 10.0 mi NNE 3.5 mph - N/A   Clear
5:35 AM 35.6 °F - 32.0 °F 87% 29.97 in 10.0 mi Calm Calm - N/A   Clear
5:55 AM 35.6 °F 32.8 °F 32.0 °F 87% 29.97 in 10.0 mi NE 3.5 mph - N/A   Clear
6:15 AM 35.6 °F - 32.0 °F 87% 29.97 in 10.0 mi Calm Calm - N/A   Clear
6:35 AM 35.6 °F - 32.0 °F 87% 29.97 in 10.0 mi Calm Calm - N/A   Clear
6:55 AM 35.6 °F - 32.0 °F 87% 29.97 in 10.0 mi Calm Calm - N/A   Clear
7:15 AM 35.6 °F - 33.8 °F 93% 29.97 in 10.0 mi Calm Calm - N/A   Clear
7:35 AM 39.2 °F - 35.6 °F 87% 29.97 in 10.0 mi Calm Calm - N/A   Clear
7:55 AM 41.0 °F - 35.6 °F 81% 29.98 in 3.0 mi Calm Calm - N/A   Clear
8:15 AM 44.6 °F 43.1 °F 35.6 °F 71% 29.98 in 3.0 mi South 3.5 mph - N/A   Clear
8:35 AM 46.4 °F 45.2 °F 35.6 °F 66% 29.98 in 1.8 mi SSW 3.5 mph - N/A   Clear
8:55 AM 46.4 °F 43.5 °F 35.6 °F 66% 29.97 in 10.0 mi SW 5.8 mph - N/A   Clear
9:15 AM 48.2 °F - 35.6 °F 62% 29.97 in 10.0 mi South 3.5 mph - N/A   Clear
9:35 AM 48.2 °F - 35.6 °F 62% 29.96 in 10.0 mi SW 3.5 mph - N/A   Clear
9:55 AM 50.0 °F - 35.6 °F 58% 29.96 in 10.0 mi South 4.6 mph - N/A   Clear
10:15 AM 51.8 °F - 32.0 °F 47% 29.95 in 10.0 mi WSW 4.6 mph - N/A   Clear
10:35 AM 53.6 °F - 32.0 °F 44% 29.94 in 10.0 mi Calm Calm - N/A   Clear
10:55 AM 53.6 °F - 35.6 °F 51% 29.94 in 10.0 mi South 6.9 mph - N/A   Clear
11:15 AM 55.4 °F - 33.8 °F 44% 29.94 in 10.0 mi SW 4.6 mph - N/A   Clear
11:35 AM 57.2 °F - 32.0 °F 38% 29.93 in 10.0 mi SW 8.1 mph 17.3 mph N/A   Clear
11:55 AM 57.2 °F - 32.0 °F 38% 29.92 in 10.0 mi SW 10.4 mph 21.9 mph N/A   Clear
12:15 PM 59.0 °F - 32.0 °F 36% 29.91 in 10.0 mi SW 10.4 mph 16.1 mph N/A   Clear
12:35 PM 59.0 °F - 32.0 °F 36% 29.90 in 10.0 mi SW 10.4 mph 19.6 mph N/A   Clear
12:55 PM 60.8 °F - 32.0 °F 34% 29.89 in 10.0 mi SW 6.9 mph 18.4 mph N/A   Clear
1:15 PM 62.6 °F - 32.0 °F 32% 29.88 in 10.0 mi SSW 11.5 mph 25.3 mph N/A   Clear
1:35 PM 62.6 °F - 28.4 °F 27% 29.87 in 10.0 mi SW 12.7 mph 26.5 mph N/A   Clear
1:55 PM 64.4 °F - 30.2 °F 28% 29.88 in 10.0 mi WSW 17.3 mph 25.3 mph N/A   Clear
2:15 PM 64.4 °F - 28.4 °F 26% 29.88 in 10.0 mi West 16.1 mph 23.0 mph N/A   Clear
2:35 PM 64.4 °F - 26.6 °F 24% 29.88 in 10.0 mi West 9.2 mph 24.2 mph N/A   Clear
2:55 PM 64.4 °F - 26.6 °F 24% 29.88 in 10.0 mi West 13.8 mph 25.3 mph N/A   Clear
3:15 PM 64.4 °F - 24.8 °F 22% 29.88 in 10.0 mi West 3.5 mph - N/A   Clear
3:35 PM 64.4 °F - 26.6 °F 24% 29.88 in 10.0 mi West 10.4 mph 19.6 mph N/A   Clear
3:55 PM 64.4 °F - 24.8 °F 22% 29.88 in 10.0 mi WSW 9.2 mph 17.3 mph N/A   Clear
4:15 PM 64.4 °F - 26.6 °F 24% 29.87 in 10.0 mi SW 8.1 mph 21.9 mph N/A   Clear
4:35 PM 64.4 °F - 26.6 °F 24% 29.87 in 10.0 mi SW 6.9 mph 19.6 mph N/A   Clear
4:55 PM 64.4 °F - 26.6 °F 24% 29.87 in 10.0 mi SW 9.2 mph 19.6 mph N/A   Clear
5:15 PM 64.4 °F - 28.4 °F 26% 29.87 in 10.0 mi SSW 8.1 mph 19.6 mph N/A   Clear
5:35 PM 62.6 °F - 28.4 °F 27% 29.88 in 10.0 mi SW 8.1 mph 17.3 mph N/A   Clear
5:55 PM 62.6 °F - 28.4 °F 27% 29.88 in 10.0 mi WSW 6.9 mph 16.1 mph N/A   Clear
6:15 PM 60.8 °F - 28.4 °F 29% 29.88 in 10.0 mi SW 5.8 mph - N/A   Clear
6:35 PM 59.0 °F - 28.4 °F 31% 29.88 in 10.0 mi West 3.5 mph - N/A   Clear
6:55 PM 59.0 °F - 30.2 °F 34% 29.88 in 10.0 mi West 6.9 mph - N/A   Clear
7:15 PM 57.2 °F - 30.2 °F 36% 29.88 in 10.0 mi SW 10.4 mph - N/A   Clear
7:35 PM 57.2 °F - 30.2 °F 36% 29.88 in 10.0 mi WSW 9.2 mph - N/A   Clear
7:55 PM 55.4 °F - 30.2 °F 38% 29.88 in 10.0 mi SW 9.2 mph 21.9 mph N/A   Clear
8:15 PM 55.4 °F - 30.2 °F 38% 29.88 in 10.0 mi NW 4.6 mph - N/A   Clear
8:35 PM 53.6 °F - 32.0 °F 44% 29.88 in 10.0 mi West 4.6 mph - N/A   Clear
8:55 PM 53.6 °F - 32.0 °F 44% 29.89 in 10.0 mi SW 4.6 mph - N/A   Clear
9:15 PM 51.8 °F - 32.0 °F 47% 29.90 in 10.0 mi SSW 3.5 mph - N/A   Clear
9:35 PM 50.0 °F - 32.0 °F 50% 29.91 in 10.0 mi West 4.6 mph - N/A   Clear
9:55 PM 50.0 °F - 32.0 °F 50% 29.91 in 10.0 mi SW 5.8 mph - N/A   Clear
10:15 PM 48.2 °F - 32.0 °F 54% 29.91 in 10.0 mi SSW 9.2 mph - N/A   Clear
10:35 PM 48.2 °F - 32.0 °F 54% 29.92 in 10.0 mi SSW 6.9 mph - N/A   Clear
10:55 PM 48.2 °F - 32.0 °F 54% 29.93 in 10.0 mi South 4.6 mph - N/A   Clear
11:15 PM 41.0 °F 38.0 °F 32.0 °F 70% 29.93 in 10.0 mi NE 4.6 mph - N/A   Clear
11:35 PM 41.0 °F 39.0 °F 32.0 °F 70% 29.93 in 10.0 mi NE 3.5 mph - N/A   Clear
11:55 PM 39.2 °F 35.9 °F 32.0 °F 75% 29.94 in 10.0 mi North 4.6 mph - N/A   Clear